This is the latest recevied weather packets stored in our database for station/object NO9B. If no packets are shown the sender has not sent any weather packets the latest 10 day(s).
| Time | Temp. | Humidity | Pressure | Rain* | Wind** | Luminosity | Snow |
|---|---|---|---|---|---|---|---|
| 1787857885 | 27.78° C | 57% | 1017.8 hPa | 0 mm | - | 78 W/m² | - |
| 1787857582 | 28.33° C | 50% | 1017.8 hPa | 0 mm | - | 73 W/m² | - |
| 1787857281 | 27.78° C | 55% | 1017.7 hPa | 0 mm | - | 628 W/m² | - |
| 1787856979 | 27.22° C | 55% | 1017.8 hPa | 0 mm | - | 641 W/m² | - |
| 1787856674 | 26.67° C | 55% | 1017.8 hPa | 0 mm | - | 73 W/m² | - |
| 1787856374 | 27.22° C | 54% | 1017.8 hPa | 0 mm | - | 54 W/m² | - |
| 1787856070 | 27.78° C | 53% | 1017.7 hPa | 0 mm | - | 66 W/m² | - |
| 1787855769 | 28.33° C | 53% | 1017.7 hPa | 0 mm | - | 121 W/m² | - |
| 1787855465 | 27.78° C | 52% | 1017.6 hPa | 0 mm | - | 699 W/m² | - |
| 1787855160 | 28.33° C | 54% | 1017.7 hPa | 0 mm | - | 576 W/m² | - |
| 1787854856 | 28.89° C | 50% | 1017.6 hPa | 0 mm | - | 65 W/m² | - |
| 1787854555 | 28.33° C | 50% | 1017.9 hPa | 0 mm | - | 695 W/m² | - |
| 1787854250 | 27.78° C | 52% | 1017.6 hPa | 0 mm | - | 656 W/m² | - |
| 1787853950 | 27.78° C | 52% | 1017.7 hPa | 0 mm | - | 84 W/m² | - |
| 1787853644 | 28.33° C | 48% | 1017.7 hPa | 0 mm | - | 127 W/m² | - |
| 1787853343 | 27.78° C | 51% | 1017.8 hPa | 0 mm | - | 678 W/m² | - |
| 1787853038 | 27.78° C | 52% | 1017.8 hPa | 0 mm | - | 441 W/m² | - |
| 1787852733 | 27.78° C | 52% | 1017.8 hPa | 0 mm | - | 699 W/m² | - |
| 1787852432 | 27.22° C | 54% | 1017.8 hPa | 0 mm | - | 663 W/m² | - |
| 1787852132 | 27.78° C | 54% | 1017.8 hPa | 0 mm | - | 61 W/m² | - |
| 1787851827 | 28.33° C | 51% | 1017.8 hPa | 0 mm | - | 128 W/m² | - |
| 1787851526 | 28.33° C | 53% | 1017.8 hPa | 0 mm | - | 657 W/m² | - |
| 1787851226 | 27.78° C | 56% | 1017.7 hPa | 0 mm | - | 656 W/m² | - |
| 1787850922 | 27.22° C | 57% | 1017.8 hPa | 0 mm | - | 668 W/m² | - |
| 1787850618 | 27.78° C | 54% | 1017.6 hPa | 0 mm | - | 64 W/m² | - |
* Rain latest hour (hover to see other rain measurements)
** Current wind speed in m/s (hover to see current wind gust speed)